Regional Weather Roundup
Issued by NWS

Home | Current Version | Previous Version | Graphics & Text | Print | Product List | Glossary On
Versions: 1 2 3 4 5 6 7 8 9 10 11 12 13 14 15 16 17 18 19 20 21 22 23 24 25 26 27 28 29 30 31 32 33 34 35 36 37 38 39 40 41 42 43 44 45 46 47 48 49 50
000
ASUS43 KLSX 290810
RWRMO

WEATHER SUMMARY FOR MISSOURI
NATIONAL WEATHER SERVICE SPRINGFIELD MO
300 AM CDT THU SEP 29 2016

NOTE: "FAIR" INDICATES FEW OR NO CLOUDS BELOW 12,000 FEET WITH NO
       SIGNIFICANT WEATHER AND/OR OBSTRUCTIONS TO VISIBILITY.
       CURRENT SKY AND/OR WEATHER CONDITIONS ARE NOT AVAILABLE FOR
       CHILLICOTHE AND FARMINGTON.

MOZ001>031-035>038-043-044-053-054-290900-
...NORTHERN AND WESTERN MISSOURI...

CITY           SKY/WX    TMP DP  RH WIND       PRES   REMARKS
KANSAS CTY INT PTCLDY    49  45  86 N6        30.29R
KANSAS C DTWN  CLEAR     54  47  77 NW5       30.28R
LEE`S SUMMIT   CLEAR     52  47  83 N8        30.28R
ST JOSEPH      CLEAR     50  46  86 N6        30.30S
CHILLICOTHE      N/A     53  49  86 N5        30.29R
KIRKSVILLE     CLEAR     50  47  89 NW6       30.25S

$$
MOZ066>068-077>081-088>096-101>105-290900-
...SOUTHWEST MISSOURI...

CITY           SKY/WX    TMP DP  RH WIND       PRES   REMARKS
SPRINGFIELD    CLEAR     48  44  86 NW7       30.22S
JOPLIN         CLEAR     49  47  93 N5        30.25S
BRANSON        CLEAR     50  46  87 NW5       30.22S

$$
MOZ032>034-039>042-045>050-055>058-069>072-290900-
...CENTRAL MISSOURI...

CITY           SKY/WX    TMP DP  RH WIND       PRES   REMARKS
COLUMBIA       CLEAR     51  49  92 N8        30.21S
JEFFERSON CITY CLEAR     53  49  86 VRB5      30.21R
ROLLA          CLEAR     50  48  93 N7        30.18R
SEDALIA        CLEAR     51  48  89 N6        30.25R
OSAGE BEACH    CLEAR     51  49  92 N6        30.22R

$$
MOZ051-052-059>065-290900-
...EAST CENTRAL MISSOURI...

CITY           SKY/WX    TMP DP  RH WIND       PRES   REMARKS
ST LOUIS INTL  CLEAR     54  49  83 NW8       30.14R
SPIRIT OF STL  CLEAR     54  50  86 NW8       30.14S
ST CHARLES     CLEAR     55  50  83 NW10      30.13S

$$
MOZ072>076-082>087-097>100-106>115-290900-
...SOUTH CENTRAL AND SOUTHEAST MISSOURI...

CITY           SKY/WX    TMP DP  RH WIND       PRES   REMARKS
CAPE GIRARDEAU CLEAR     51  47  86 W5        30.09S
FARMINGTON     CLEAR     52  48  86 NW8       30.14R
POPLAR BLUFF   CLEAR     52  48  86 NW9       30.12S
WEST PLAINS    CLEAR     52  46  80 N7        30.19S

$$




USA.gov is the U.S. government's official web portal to all federal, state and local government web resources and services.